This is the latest recevied weather packets stored in our database for station/object K8GLX. If no packets are shown the sender has not sent any weather packets the latest 10 day(s).
| Time | Temp. | Humidity | Pressure | Rain* | Wind** | Luminosity | Snow |
|---|---|---|---|---|---|---|---|
| 1777510033 | 7.78° C | 98% | 1010.9 hPa | 0 mm | - | 0 W/m² | - |
| 1777509739 | 7.78° C | 98% | 1010.8 hPa | 0 mm | - | 0 W/m² | - |
| 1777509432 | 7.78° C | 98% | 1010.7 hPa | 0 mm | - | 0 W/m² | - |
| 1777509139 | 7.78° C | 98% | 1011 hPa | 0 mm | - | 0 W/m² | - |
| 1777508832 | 7.78° C | 98% | 1010.8 hPa | 0 mm | - | 0 W/m² | - |
| 1777508666 | 7.78° C | 98% | 1010.8 hPa | 0 mm | - | 0 W/m² | - |
| 1777508233 | 7.78° C | 98% | 1010.7 hPa | 0 mm | - | 0 W/m² | - |
| 1777507938 | 7.78° C | 98% | 1010.5 hPa | 0 mm | - | 0 W/m² | - |
| 1777507632 | 8.33° C | 98% | 1010.7 hPa | 0 mm | - | 0 W/m² | - |
| 1777507338 | 7.78° C | 98% | 1010.6 hPa | 0 mm | - | 0 W/m² | - |
| 1777507033 | 7.78° C | 98% | 1010.8 hPa | 0 mm | - | 4 W/m² | - |
| 1777506738 | 7.78° C | 98% | 1010.6 hPa | 0 mm | - | 4 W/m² | - |
| 1777506433 | 7.78° C | 98% | 1010.5 hPa | 0 mm | - | 3 W/m² | - |
| 1777506140 | 8.33° C | 98% | 1010.6 hPa | 0 mm | - | 4 W/m² | - |
| 1777505833 | 8.33° C | 98% | 1010.3 hPa | 0 mm | - | 16 W/m² | - |
| 1777505538 | 8.33° C | 98% | 1010.4 hPa | 0 mm | - | 14 W/m² | - |
| 1777505233 | 8.33° C | 98% | 1010.5 hPa | 0 mm | - | 9 W/m² | - |
| 1777504938 | 8.33° C | 98% | 1010.6 hPa | 0 mm | - | 10 W/m² | - |
| 1777504633 | 8.33° C | 98% | 1010.7 hPa | 0 mm | - | 7 W/m² | - |
| 1777504465 | 8.33° C | 98% | 1010.3 hPa | 0 mm | - | 8 W/m² | - |
| 1777504034 | 8.33° C | 98% | 1010.4 hPa | 0 mm | - | 11 W/m² | - |
| 1777503865 | 8.33° C | 98% | 1010.4 hPa | 0 mm | - | 14 W/m² | - |
| 1777503433 | 8.33° C | 98% | 1010.1 hPa | 0 mm | - | 19 W/m² | - |
| 1777503138 | 8.33° C | 98% | 1010.2 hPa | 0 mm | - | 37 W/m² | - |
| 1777502834 | 8.33° C | 98% | 1010.3 hPa | 0 mm | - | 50 W/m² | - |
* Rain latest hour (hover to see other rain measurements)
** Current wind speed in m/s (hover to see current wind gust speed)